Weather History for Fort Wayne, IN

Change the Weather History Date:

Sunday, May 5, 2013

  Actual Average Record
Temperature  
Mean Temperature 60 °F 57 °F  
Max Temperature 71 °F 68 °F 89 °F (1952)
Min Temperature 48 °F 45 °F 29 °F (1973)
Degree Days  
Heating Degree Days 5 9  
Month to date heating degree days 5 47  
Since 1 July heating degree days 5875 5929  
Cooling Degree Days 0 1  
Month to date cooling degree days 7 1  
Year to date cooling degree days 7 9  
Growing Degree Days 10 (Base 50)    
Moisture  
Dew Point 45 °F    
Average Humidity 61    
Maximum Humidity 80    
Minimum Humidity 42    
Precipitation  
Precipitation T in 0.12 in 1.82 in (2003)
Month to date precipitation T 0.56  
Year to date precipitation 14.73 11.09  
Snow  
Snow 0.00 in 0.00 in T in (1952)
Month to date snowfall 0.0 0.0  
Since 1 July snowfall 38.5 33.5  
Snow Depth 0.00 in    
Sea Level Pressure  
Sea Level Pressure 30.00 in    
Wind  
Wind Speed 9 mph (East)    
Max Wind Speed 18 mph    
Max Gust Speed 23 mph    
Visibility 10 miles    
Events Rain    
T = Trace of Precipitation, MM = Missing Value Source: NWS Daily Summary

Daily Weather History Graph

Daily Weather History Graph

Search for Another Location

Airport:

Trip Planner

Search our weather history database for the weather conditions in past years. The results will help you decide how hot, cold, wet, or windy it might be!

Date:

Astronomy

May. 05, 2013 Rise Set
Actual Time 6:33 AM EDT 8:41 PM EDT
Civil Twilight 6:03 AM EDT 9:12 PM EDT
Nautical Twilight 5:26 AM EDT 9:49 PM EDT
Astronomical Twilight 4:45 AM EDT 10:30 PM EDT
Moon 4:05 AM EDT (5/5) 4:38 PM EDT (5/5)
Length of Visible Light 15h 08m
Length of Day
14h 08m
Waning Crescent, 18% of the Moon is Illuminated
May 5
Waning Crescent
May 9
New
May 18
First Quarter
May 25
Full
May 31
Last Quarter

Hourly Weather History & Observations

Time (EDT) Temp. Dew Point Humidity Pressure Visibility Wind Dir Wind Speed Gust Speed Precip Events Conditions
12:54 AM 57.0 °F 44.1 °F 62% 30.02 in 10.0 mi ENE 10.4 mph - N/A   Scattered Clouds
1:54 AM 53.1 °F 44.1 °F 71% 30.01 in 10.0 mi NE 6.9 mph - N/A   Scattered Clouds
2:54 AM 53.1 °F 44.1 °F 71% 30.00 in 10.0 mi ENE 8.1 mph - N/A   Scattered Clouds
3:54 AM 51.1 °F 43.0 °F 74% 29.99 in 10.0 mi East 6.9 mph - N/A   Scattered Clouds
4:54 AM 50.0 °F 43.0 °F 77% 29.99 in 10.0 mi East 6.9 mph - N/A   Mostly Cloudy
5:54 AM 48.9 °F 43.0 °F 80% 30.00 in 10.0 mi East 8.1 mph - N/A   Mostly Cloudy
6:54 AM 48.9 °F 43.0 °F 80% 30.00 in 10.0 mi East 5.8 mph - N/A   Mostly Cloudy
7:54 AM 54.0 °F 46.0 °F 75% 30.01 in 10.0 mi ENE 6.9 mph - N/A   Mostly Cloudy
8:54 AM 59.0 °F 46.9 °F 64% 30.02 in 10.0 mi East 9.2 mph - N/A   Mostly Cloudy
9:54 AM 63.0 °F 46.0 °F 54% 30.03 in 10.0 mi East 11.5 mph - N/A   Mostly Cloudy
10:54 AM 64.9 °F 48.0 °F 54% 30.04 in 10.0 mi East 11.5 mph - N/A   Mostly Cloudy
11:54 AM 66.0 °F 48.0 °F 52% 30.02 in 10.0 mi East 11.5 mph 18.4 mph N/A   Mostly Cloudy
12:54 PM 68.0 °F 48.0 °F 49% 30.01 in 10.0 mi East 13.8 mph - N/A   Mostly Cloudy
1:54 PM 69.8 °F 48.2 °F 46% 29.99 in 10.0 mi ENE 15.0 mph 21.9 mph N/A   Mostly Cloudy
2:54 PM 69.1 °F 46.9 °F 45% 30.00 in 10.0 mi ESE 13.8 mph 21.9 mph N/A   Overcast
3:54 PM 69.1 °F 46.9 °F 45% 29.99 in 10.0 mi SE 8.1 mph - N/A   Overcast
4:54 PM 68.0 °F 45.0 °F 43% 29.99 in 10.0 mi SE 11.5 mph - N/A   Overcast
5:54 PM 64.9 °F 48.0 °F 54% 29.99 in 10.0 mi SSE 5.8 mph - 0.00 in Rain Light Rain
6:54 PM 64.9 °F 48.0 °F 54% 29.99 in 10.0 mi Calm Calm - 0.00 in Rain Light Rain
7:54 PM 64.0 °F 48.0 °F 56% 29.98 in 10.0 mi NNE 6.9 mph - 0.00 in   Overcast
8:54 PM 63.0 °F 45.0 °F 52% 29.99 in 10.0 mi ENE 9.2 mph - N/A   Overcast
9:54 PM 61.0 °F 45.0 °F 56% 29.99 in 10.0 mi NE 6.9 mph - N/A   Overcast
10:54 PM 62.1 °F 39.9 °F 44% 29.99 in 10.0 mi NE 11.5 mph - N/A   Mostly Cloudy
11:54 PM 60.1 °F 39.9 °F 47% 29.97 in 10.0 mi NE 13.8 mph - N/A   Overcast